CZ-6A DEB, 54358

Orbit data source: Space-Track

CZ-6A DEB, 54358 is space debris in SSO originally from a launch on Fri, 11 Nov 2022 UTC launched from the Taiyaun Space Center, China (TSC). Debris objects in space refer to the collection of defunct objects orbiting the Earth. Examples of debris include non-operational satellites, rocket bodies, and fragments generated from explosions, collisions, or faulty payload assembly.

Loading next visibility...
Identifier
54358, 2022-151DD
Orbit
SSO
Country
Flag of CNCN / PRC
Related business
Manufacturer
SAST
Mission
Spacecraft
Bus & Motor
Unknown
Mass
Unknown
Launch date (UTC)
2022-11-11 (3 years ago)
Launch vehicle
Unknown
Launch site
Taiyaun Space Center, China (TSC)
Object type
Payload
Rocket body
Debris
Shape & HBR
Unknown shape, 0.1 m
Radar Cross Section
Small (<0.1 m²)

Expand to show TLE details & history
Last TLE update: 1 day ago

TLE from 1 day ago
0 CZ-6A DEB
1 54358U 22151DD  25349.62772514  .00007524  00000-0  85717-3 0  9992
2 54358  98.4711  48.0441 0091905   4.7019 355.5035 14.83439180164696
Epoch: 2025-12-15T15:03Z
TLE epoch observation values (Epoch: 2025-12-15T15:03:55.452Z)
Latitude
0.00001°
Longitude
97.53948°
Altitude
557.384 km
Speed
7.618 km/s
True Right ascension
03h 12m 10s
True Declination
0° 00' 00"
Sunlit
Object was in full shadow at epoch
Visualization orbit readout
Latitude
Unknown
Longitude
Unknown
Altitude
Unknown
Speed
Unknown
Apparent Right ascension
Unknown
Apparent Declination
Unknown
Sunlit
N/A
Visualization observer readout
Local Sidereal Time
17:50:57
Azimuth
Unknown
Elevation
Unknown
Doppler factor
Unknown
Orbital elements
Apogee altitude
679.827 km
Perigee altitude
551.276 km
Semi-major axis
6,993.689 km
Eccentricity
0.00919
Inclination
98.4711°
RAAN
48.0441°
Arg. of periapsis
4.7019°
True anomaly
355.41998°
Mean anomaly
355.5035°
Eccentric anomaly
355.46184°
Mean motion
3.71094 °/min
Orbital period
97.01 mins
BSTAR
0.00085717
Loading maneuver chart data...
Computing Atmospheric mass density...

Documentation

Showing up to 5 results
|